Location: Brivio
(45.7333°N, 9.4500°E)
Time: 07:29:05
(UTC+00:00)

Cosmos 2084 - Pass Details

Date: 18 October 2019
Orbit: 555 x 628 km, 62.8° (Epoch: 16 November)

Event Time Altitude Azimuth Distance (km) Brightness Sun altitude
Rises 17:08:03 0° 227° (SW) 2,897 8.0 -7.0°
Reaches altitude 10° 17:10:21 10° 230° (SW) 1,988 7.1 -7.4°
Maximum altitude 17:14:50 64° 312° (NW) 687 4.0 -8.2°
Drops below altitude 10° 17:19:16 10° 34° (NE) 1,965 5.8 -9.0°
Enters shadow 17:21:08 - 38° (NE) 2,700 6.4 -9.3°
